Location: Bergheim
(50.9593°N, 6.6400°E)
Time: 10:38:59
(UTC+02:00)

ISS - Pass Details

Date: 25 May 2021
Orbit: 417 x 422 km, 51.6° (Epoch: 13 June)

Event Time Altitude Azimuth Distance (km) Brightness Sun altitude
Rises 00:34:57 0° 285° (WNW) 2,369 0.5 -17.1°
Reaches altitude 10° 00:37:14 10° 272° (W) 1,503 -0.8 -17.2°
Enters shadow 00:39:31 25° 233° (SW) 887 -2.4 -17.2°
